Tracking 35334 objects as of 13-Sep-2026
HD Live streaming from Space Station
objects crossing your sky now

COSMOS 2392 DEB

Track COSMOS 2392 DEB now!
10-day predictions


NORAD ID: 27494
Int'l Code: 2002-037H
Launch date: July 25, 2002
Source: Commonwealth of Independent States (former USSR) (CIS)
Launch site: TYURATAM MISSILE AND SPACE COMPLEX (TTMTR)

Note: This is SATELLITE DEBRIS
Your satellite tracking list
Your tracking list is empty




NASA's NSSDC Master Catalog

Two Line Element Set (TLE):
1 27494U 02037H   26255.88543862  .00000070  00000-0  86526-3 0  9999
2 27494  63.4391 141.0074 0572611 331.9757  96.6102 12.10900906 64550
Source of the keplerian elements: AFSPC